This demonstration page uses our WeatherBlox Daily Observations layout. Learn more.

41.55636, -103.73856

Hourly Observations for April 1, 2015

Temp ( °F °C ) Dew Point ( °F °C ) Humidity (%) Winds ( mph kmh ) Pressure ( in mb ) Visibility ( mi km ) Precip ( " mm )
12:53 am 00:53 Clear 63 17.2 20 -6.7 19 19 SSW 14 22 29.54 1000 10 16.0934 0 0
1:53 am 01:53 Clear 60 15.6 20 -6.7 21 21 SW 7 11 29.52 1000 10 16.0934 0 0
2:53 am 02:53 Clear 53 11.7 22 -5.6 30 30 N 6 9 29.52 1000 10 16.0934 0 0
3:53 am 03:53 Clear 47 8.3 24 -4.4 41 41 NNE 8 13 29.53 1000 10 16.0934 0 0
4:53 am 04:53 Clear 44 6.7 24 -4.4 45 45 NW 5 7 29.52 1000 10 16.0934 0 0
5:53 am 05:53 Clear 42 5.6 23 -5 47 47 N 3 6 29.54 1001 10 16.0934 0 0
6:53 am 06:53 Sunny 45 7.2 25 -3.9 46 46 N 9 15 29.56 1001 10 16.0934 0 0
7:53 am 07:53 Sunny 50 10 27 -2.8 41 41 WNW 10 17 29.62 1003 10 16.0934 0 0
8:53 am 08:53 Sunny 55 13 28 -2 36 36 W 9 15 29.59 1002 10 16.0934 0 0
9:53 am 09:53 Sunny 63 17.2 29 -1.7 28 28 W 12 19 29.62 1003 10 16.0934 0 0
10:53 am 10:53 Sunny 68 20 29 -1.7 23 23 W 10 17 29.62 1003 10 16.0934 0 0
11:53 am 11:53 Sunny 72 22.2 30 -1.1 21 21 WNW 18 30 29.59 1002 10 16.0934 0 0
12:53 pm 12:53 Sunny with Light Rain 73 22.8 27 -2.8 18 18 WNW 22 35 29.57 1001 10 16.0934 0 0.0254
1:53 pm 13:53 Sunny 73 22.8 27 -2.8 18 18 WNW 30 48 29.57 1001 10 16.0934 0 0.0254
2:53 pm 14:53 Partly Cloudy 66 18.9 18 -7.8 16 16 W 23 37 29.61 1003 10 16.0934 0 0
3:53 pm 15:53 Partly Cloudy 66 18.9 16 -8.9 14 14 W 24 39 29.63 1003 10 16.0934 0 0
4:24 pm 16:24 Mostly Cloudy 64 18 27 -3 24 24 NNW 20 31 29.53 1000 10 16.0934 0 0
4:53 pm 16:53 Sunny 60 15.6 34 1.1 38 38 N 23 37 29.69 1006 10 16.0934 0 0
5:53 pm 17:53 Sunny 53 11.7 30 -1.1 41 41 N 28 44 29.76 1008 10 16.0934 0 0
6:53 pm 18:53 Sunny 49 9.4 28 -2.2 44 44 N 20 31 29.81 1010 10 16.0934 0 0
7:53 pm 19:53 Clear 47 8.3 26 -3.3 44 44 N 13 20 29.82 1010 10 16.0934 0 0
8:53 pm 20:53 Clear 45 7.2 24 -4.4 44 44 N 9 15 29.84 1011 10 16.0934 0 0
9:53 pm 21:53 Clear 40 4.4 24 -4.4 53 53 W 9 15 29.84 1011 10 16.0934 0 0
10:53 pm 22:53 Clear 37 2.8 24 -4.4 59 59 W 6 9 29.85 1011 10 16.0934 0 0
11:53 pm 23:53 Clear 34 1.1 23 -5 64 64 NW 9 15 29.86 1011 10 16.0934 0 0

Powered by AerisWeather